Location: Cormont
(50.5693°N, 1.7416°E)
Time: 14:30:21
(UTC+00:00)

STARLINK-79 - Pass Details

Date: 21 October 2019
Orbit: 548 x 551 km, 53.0° (Epoch: 17 November)

Event Time Altitude Azimuth Distance (km) Brightness Sun altitude
Rises 17:48:11 0° 269° (W) 2,716 9.5 -10.0°
Reaches altitude 10° 17:50:26 10° 273° (W) 1,823 7.8 -10.3°
Maximum altitude 17:54:33 62° 355° (N) 623 3.9 -11.0°
Enters shadow 17:57:43 16° 74° (ENE) 1,461 5.2 -11.5°
